[[{"header":{"parameterUnit":"m.s-1","parameterCategory":1,"la1":30.2991,"la2":30.254,"lo1":-89.0895,"lo2":-89.0444,"dx":0.0017,"dy":0.0017,"nx":28,"ny":28,"refTime":"2022-11-19T09:00:00:Z","depth":0,"parameterNumber":2,"parameterNumberName":"U-component_of_WINDS"},"data":[0,0,0,0,0,0,0,0,0,0,0,0,0,0,0,0,0,0,0,0,0,0,0,0,0,0,0,0,0,0,0,0,0,0,0,0,0,0,0,0,0,0,0,0,0,0,0,0,0,0,0,0,0,0,0,0,0,0,-3.432,-3.432,0,-3.4373,-3.4374,-3.4375,-3.4246,-3.4242,-3.4238,-3.4234,-3.4295,-3.4301,-3.4306,0,0,0,0,0,0,0,0,0,0,0,0,0,-3.4112,-3.4116,-3.432,-3.432,-3.4321,-3.4373,-3.4374,-3.4375,-3.4247,-3.4242,-3.4237,-3.4232,-3.4293,-3.43,-3.4306,0,0,0,0,0,0,0,0,0,0,0,0,0,-3.4188,-3.4118,-3.432,-3.4263,-3.4259,-3.4373,-3.4374,-3.4375,-3.4248,-3.4242,-3.4235,-3.423,-3.4291,-3.4299,-3.4307,-3.4481,0,0,-3.4332,-3.4336,0,0,0,0,0,0,0,0,-3.4184,-3.4196,-3.4271,-3.4267,-3.4262,-3.4296,-3.4323,-3.4411,-3.4249,-3.4252,-3.4234,-3.4227,-3.4301,-3.4308,-3.4332,-3.4484,-3.4486,-3.4333,-3.4338,-3.4342,-3.4344,0,0,0,0,0,0,0,-3.4179,-3.4193,-3.4341,-3.4272,-3.4267,-3.4237,-3.4241,-3.4339,-3.4311,-3.4251,-3.4242,-3.425,-3.4298,-3.4324,-3.4332,-3.4487,-3.4333,-3.434,-3.4345,-3.4348,-3.4785,-3.4791,0,0,0,0,0,0,-3.418,-3.4189,-3.4339,-3.4343,-3.4207,-3.4246,-3.425,-3.4292,-3.4309,-3.4306,-3.4255,-3.4244,-3.4313,-3.4323,-3.4334,-3.4539,-3.4341,-3.4349,-3.4354,-3.4778,-3.4786,-3.4794,0,0,0,0,0,0,-3.4176,-3.4194,-3.4337,-3.4263,-3.4279,-3.4256,-3.4304,-3.4296,-3.4323,-3.4312,-3.4307,-3.4287,-3.4309,-3.4323,-3.4445,-3.454,-3.4353,-3.436,-3.477,-3.4781,-3.479,-3.4951,0,0,0,0,0,0,-3.417,-3.4194,-3.4258,-3.4266,-3.4284,-3.4446,-3.431,-3.4302,-3.4336,-3.4322,-3.4341,-3.4338,-3.4305,-3.4434,-3.4453,-3.4547,-3.4367,-3.4762,-3.4775,-3.4787,-3.4937,-3.4965,-3.4989,0,0,0,0,0,-3.4163,-3.4302,-3.4262,-3.4281,-3.4363,-3.4452,-3.4462,-3.442,-3.4344,-3.441,-3.4403,-3.4337,-3.4525,-3.4447,-3.4468,-3.4566,-3.4756,-3.4771,-3.4786,-3.4925,-3.496,-3.4989,0,0,0,0,0,0,-3.4309,-3.4302,-3.4258,-3.4403,-3.4429,-3.443,-3.4511,-3.4457,-3.4507,-3.4492,-3.4439,-3.4444,-3.4577,-3.4583,-3.4496,-3.4736,-3.4628,-3.4648,-3.4727,-3.4759,-3.4785,-3.4782,-3.4373,0,0,0,0,0,-3.4357,-3.4428,-3.4419,-3.4548,-3.4563,-3.4536,-3.4572,-3.4537,-3.4563,-3.4574,-3.4575,-3.4605,-3.467,-3.4715,-3.4774,-3.4936,-3.494,-3.5014,-3.504,-3.5062,-3.5081,-3.5168,-3.5202,-3.4843,-3.4843,-3.4843,0,0,-3.446,-3.4465,-3.4513,-3.4578,-3.4593,-3.467,-3.4546,-3.4631,-3.4688,-3.4587,-3.4703,-3.4706,-3.4734,-3.4878,-3.4941,-3.4887,-3.518,-3.5081,-3.5098,-3.5105,-3.5187,-3.5222,-3.5252,-3.4853,-3.4852,-3.485,0,0,-3.4685,-3.4695,-3.4804,-3.4822,-3.4846,-3.4827,-3.4853,-3.4863,-3.486,-3.4974,-3.4901,-3.4968,-3.5082,-3.5105,-3.5133,-3.5366,-3.5309,-3.5387,-3.5524,-3.5611,-3.5639,-3.5664,-3.5749,-3.578,-3.5405,-3.5406,-3.5406,0,-3.481,-3.4919,-3.4868,-3.4958,-3.499,-3.4899,-3.5011,-3.5031,-3.5076,-3.51,-3.5038,-3.5179,-3.5192,-3.5341,-3.5397,-3.5422,-3.5452,-3.5386,-3.5638,-3.5663,-3.5686,-3.5766,-3.5798,-3.5415,-3.5414,-3.5413,-3.5412,0,-3.5072,-3.5149,-3.5235,-3.5278,-3.5318,-3.5419,-3.5385,-3.5432,-3.5393,-3.5381,-3.55,-3.5512,-3.5573,-3.5605,-3.5568,-3.5749,-3.5715,-3.5647,-3.5538,-3.573,-3.5805,-3.5836,-3.5429,-3.5426,-3.5423,-3.542,0,0,-3.5393,-3.5404,-3.5437,-3.5455,-3.5475,-3.5535,-3.5632,-3.569,-3.5733,-3.5766,-3.5848,-3.5945,-3.5882,-3.5913,-3.5879,-3.5954,-3.6141,-3.5877,-3.5876,-3.5927,-3.6343,-3.6396,-3.6432,-3.6101,-3.6107,-3.6111,-3.6341,0,-3.5617,-3.5781,-3.5737,-3.5903,-3.5975,-3.5889,-3.5974,-3.5997,-3.5988,-3.6049,-3.6039,-3.611,-3.602,-3.6038,-3.6109,-3.6103,-3.6224,-3.6085,-3.618,-3.6183,-3.6177,-3.6471,-3.6527,-3.6743,-3.637,-3.6375,-3.6378,0,-3.59,-3.5943,-3.6115,-3.6123,-3.6152,-3.6229,-3.6278,-3.6336,-3.6361,-3.6349,-3.6383,-3.6333,-3.6431,-3.632,-3.6455,-3.6362,-3.6398,-3.6401,-3.6408,-3.6418,-3.6294,-3.6491,-3.6811,-3.6845,-3.6423,-3.642,-3.6417,0,-3.612,-3.622,-3.6335,-3.6354,-3.6366,-3.6422,-3.643,-3.6448,-3.6486,-3.6529,-3.6554,-3.6609,-3.664,-3.6685,-3.6652,-3.6574,-3.6794,-3.6679,-3.6789,-3.6791,-3.6842,-3.684,-3.7175,-3.6861,-3.686,-3.686,-3.6859,0,-3.6376,-3.6485,-3.6434,-3.6506,-3.6626,-3.6575,-3.6696,-3.6694,-3.6711,-3.6783,-3.6712,-3.6781,-3.6732,-3.6798,-3.6773,-3.689,-3.6904,-3.6899,-3.6892,-3.6907,-3.6908,-3.6932,-3.6917,-3.6868,-3.6866,-3.6865,-3.6863,0,-3.6643,-3.6612,-3.6733,-3.6734,-3.6737,-3.6826,-3.6827,-3.6895,-3.6879,-3.6971,-3.699,-3.6967,-3.704,-3.7011,-3.709,-3.7073,-3.7223,-3.7195,-3.7215,-3.7209,-3.7321,-3.7312,-3.7685,-3.7733,-3.7386,-3.7389,-3.7392,0,-3.6809,-3.6891,-3.69,-3.6942,-3.6954,-3.7022,-3.7059,-3.7012,-3.7054,-3.7088,-3.7153,-3.7219,-3.727,-3.7392,-3.7384,-3.7444,-3.7418,-3.7544,-3.7427,-3.744,-3.7423,-3.7419,-3.7428,-3.7569,-3.7573,-3.7577,-3.7579,0,-3.7109,-3.709,-3.7145,-3.7196,-3.7242,-3.728,-3.7312,-3.7351,-3.7305,-3.7357,-3.7429,-3.7469,-3.7548,-3.7616,-3.7669,-3.7679,-3.7624,-3.7616,-3.7645,-3.7663,-3.7672,-3.7671,-3.7282,-3.7608,-3.7605,-3.7603,-3.7602,-3.7601,-3.7332,-3.7401,-3.7418,-3.7483,-3.7501,-3.7533,-3.7597,-3.7588,-3.7648,-3.7707,-3.7675,-3.7761,-3.7784,-3.7849,-3.7868,-3.7935,-3.7886,-3.7928,-3.7939,-3.7951,-3.7966,-3.7659,-3.7945,-3.7944,-3.7943,-3.7942,-3.7942,0,-3.7631,-3.7637,-3.7696,-3.7742,-3.7794,-3.7732,-3.7765,-3.7813,-3.7888,-3.7913,-3.7964,-3.8049,-3.8115,-3.8111,-3.8172,-3.8227,-3.8203,-3.8245,-3.8242,-3.8246,-3.8006,-3.7975,-3.8264,-3.8264,-3.8264,-3.8263,-3.8263,-3.8263,-3.7792,-3.7906,-3.7889,-3.8012,-3.8017,-3.8099,-3.8123,-3.8153,-3.8172,-3.827,-3.8323,-3.8319,-3.8333,-3.8394,-3.8453,-3.845,-3.8477,-3.853,-3.8518,-3.8294,-3.8263,-3.8232,-3.8204,-3.8535,-3.8535,-3.8752,-3.8755,-3.8756]},{"header":{"parameterUnit":"m.s-1","parameterCategory":1,"la1":30.2991,"la2":30.254,"lo1":-89.0895,"lo2":-89.0444,"dx":0.0017,"dy":0.0017,"nx":28,"ny":28,"refTime":"2022-11-19T09:00:00:Z","depth":0,"parameterNumber":3,"parameterNumberName":"V-component_of_WINDS"},"data":[0,0,0,0,0,0,0,0,0,0,0,0,0,0,0,0,0,0,0,0,0,0,0,0,0,0,0,0,0,0,0,0,0,0,0,0,0,0,0,0,0,0,0,0,0,0,0,0,0,0,0,0,0,0,0,0,0,0,-3.0659,-3.0659,0,-3.0689,-3.0689,-3.069,-3.0636,-3.0634,-3.0632,-3.063,-3.0662,-3.0664,-3.0666,0,0,0,0,0,0,0,0,0,0,0,0,0,-3.0554,-3.0556,-3.0659,-3.0659,-3.066,-3.0689,-3.0689,-3.069,-3.0636,-3.0634,-3.0632,-3.0629,-3.0661,-3.0664,-3.0667,0,0,0,0,0,0,0,0,0,0,0,0,0,-3.0593,-3.0557,-3.0659,-3.0636,-3.0635,-3.0689,-3.0689,-3.069,-3.0636,-3.0634,-3.0631,-3.0628,-3.066,-3.0663,-3.0667,-3.0745,0,0,-3.0679,-3.068,0,0,0,0,0,0,0,0,-3.0591,-3.0597,-3.0639,-3.0638,-3.0636,-3.0656,-3.0663,-3.0708,-3.0637,-3.0636,-3.063,-3.0627,-3.0662,-3.0665,-3.0677,-3.0746,-3.0747,-3.0679,-3.0681,-3.0683,-3.0684,0,0,0,0,0,0,0,-3.0588,-3.0595,-3.0671,-3.064,-3.0638,-3.0624,-3.0627,-3.0672,-3.0664,-3.0636,-3.0632,-3.0636,-3.066,-3.0673,-3.0677,-3.0748,-3.0679,-3.0682,-3.0685,-3.0686,-3.0879,-3.0882,0,0,0,0,0,0,-3.0588,-3.0594,-3.067,-3.0672,-3.0606,-3.0628,-3.0631,-3.0652,-3.0663,-3.0662,-3.0638,-3.0633,-3.0668,-3.0673,-3.0678,-3.0768,-3.0683,-3.0686,-3.0689,-3.0876,-3.088,-3.0883,0,0,0,0,0,0,-3.0586,-3.0596,-3.0669,-3.0632,-3.064,-3.0633,-3.0657,-3.0654,-3.0667,-3.0665,-3.0663,-3.0653,-3.0666,-3.0673,-3.0728,-3.0768,-3.0688,-3.0692,-3.0873,-3.0878,-3.0882,-3.0949,0,0,0,0,0,0,-3.0584,-3.0595,-3.0625,-3.0633,-3.0642,-3.0719,-3.066,-3.0657,-3.0674,-3.0667,-3.0678,-3.0678,-3.0665,-3.0722,-3.0732,-3.0772,-3.0694,-3.0869,-3.0875,-3.088,-3.0943,-3.0955,-3.0966,0,0,0,0,0,-3.058,-3.0644,-3.0627,-3.0637,-3.0679,-3.0721,-3.0726,-3.071,-3.0677,-3.0707,-3.0705,-3.0677,-3.0762,-3.0729,-3.0738,-3.0781,-3.0867,-3.0873,-3.088,-3.0938,-3.0953,-3.0965,0,0,0,0,0,0,-3.0643,-3.0645,-3.0626,-3.0694,-3.0708,-3.0712,-3.0749,-3.0726,-3.075,-3.0743,-3.0722,-3.0725,-3.0784,-3.0787,-3.075,-3.0855,-3.0809,-3.0818,-3.085,-3.0864,-3.0875,-3.0873,-3.0698,0,0,0,0,0,-3.0664,-3.0698,-3.0698,-3.0758,-3.0766,-3.0756,-3.0774,-3.076,-3.0773,-3.0779,-3.0781,-3.0795,-3.0824,-3.0844,-3.0872,-3.0943,-3.0944,-3.0977,-3.0988,-3.0997,-3.1005,-3.1041,-3.1055,-3.0904,-3.0904,-3.0904,0,0,-3.071,-3.0715,-3.0738,-3.0771,-3.078,-3.0814,-3.0762,-3.0801,-3.0827,-3.0785,-3.0836,-3.0838,-3.0852,-3.0915,-3.0943,-3.0921,-3.1047,-3.1005,-3.1013,-3.1016,-3.1049,-3.1064,-3.1076,-3.0909,-3.0908,-3.0907,0,0,-3.081,-3.0818,-3.0868,-3.0877,-3.089,-3.0883,-3.0895,-3.0902,-3.0902,-3.0953,-3.0921,-3.0951,-3.1003,-3.1013,-3.1025,-3.1126,-3.1101,-3.1136,-3.1194,-3.123,-3.1241,-3.1252,-3.1287,-3.13,-3.1144,-3.1144,-3.1144,0,-3.0865,-3.0916,-3.0896,-3.0937,-3.0952,-3.0914,-3.0964,-3.0974,-3.0996,-3.1007,-3.0981,-3.1043,-3.105,-3.1114,-3.1138,-3.115,-3.1162,-3.1135,-3.1241,-3.1252,-3.1261,-3.1294,-3.1307,-3.1148,-3.1147,-3.1147,-3.1147,0,-3.0982,-3.1018,-3.1056,-3.1077,-3.1096,-3.1142,-3.1128,-3.1149,-3.1133,-3.1128,-3.1179,-3.1186,-3.1213,-3.1227,-3.1212,-3.1288,-3.1273,-3.1245,-3.1198,-3.128,-3.131,-3.1323,-3.1154,-3.1152,-3.1151,-3.115,0,0,-3.1125,-3.1132,-3.1146,-3.1154,-3.1165,-3.1192,-3.1234,-3.126,-3.1278,-3.1294,-3.1328,-3.1372,-3.1344,-3.1358,-3.1343,-3.1375,-3.1452,-3.1342,-3.1342,-3.1361,-3.1535,-3.1557,-3.1572,-3.1435,-3.1438,-3.144,-3.1534,0,-3.1223,-3.1296,-3.1278,-3.1351,-3.1382,-3.1346,-3.1382,-3.1393,-3.1389,-3.1415,-3.141,-3.1441,-3.1403,-3.1411,-3.144,-3.1437,-3.1487,-3.143,-3.1467,-3.1468,-3.1464,-3.1588,-3.1611,-3.17,-3.1546,-3.1548,-3.1549,0,-3.1348,-3.1367,-3.1443,-3.1446,-3.1458,-3.1492,-3.1512,-3.1538,-3.1548,-3.1543,-3.1557,-3.1535,-3.1576,-3.1529,-3.1585,-3.1546,-3.156,-3.156,-3.1563,-3.1566,-3.1514,-3.1593,-3.1728,-3.1741,-3.1568,-3.1566,-3.1565,0,-3.1443,-3.1488,-3.1538,-3.1546,-3.1551,-3.1575,-3.1578,-3.1585,-3.1601,-3.1619,-3.1628,-3.1651,-3.1664,-3.1681,-3.1666,-3.1633,-3.1724,-3.1676,-3.172,-3.172,-3.1741,-3.174,-3.1879,-3.1751,-3.175,-3.175,-3.175,0,-3.1555,-3.1602,-3.158,-3.1611,-3.1662,-3.164,-3.1691,-3.169,-3.1697,-3.1726,-3.1696,-3.1724,-3.1702,-3.1728,-3.1716,-3.1763,-3.1769,-3.1766,-3.1762,-3.1768,-3.1769,-3.1777,-3.1771,-3.1754,-3.1753,-3.1752,-3.1752,0,-3.167,-3.1657,-3.1709,-3.1709,-3.171,-3.1748,-3.1747,-3.1775,-3.1768,-3.1805,-3.1813,-3.1802,-3.183,-3.1817,-3.1847,-3.1839,-3.1899,-3.1888,-3.1896,-3.1893,-3.1937,-3.1933,-3.2087,-3.2105,-3.1965,-3.1967,-3.1968,0,-3.1742,-3.1778,-3.178,-3.1797,-3.1802,-3.1831,-3.1846,-3.1825,-3.1842,-3.1854,-3.188,-3.1906,-3.1926,-3.1973,-3.1968,-3.1991,-3.1979,-3.2031,-3.1982,-3.1987,-3.1979,-3.1977,-3.198,-3.2041,-3.2043,-3.2044,-3.2045,0,-3.1872,-3.1863,-3.1885,-3.1906,-3.1924,-3.1939,-3.1952,-3.1967,-3.1946,-3.1967,-3.1995,-3.201,-3.204,-3.2066,-3.2085,-3.2088,-3.2063,-3.206,-3.2071,-3.2078,-3.2081,-3.2079,-3.1922,-3.2057,-3.2056,-3.2055,-3.2054,-3.2054,-3.1967,-3.1995,-3.2001,-3.2027,-3.2033,-3.2045,-3.2071,-3.2066,-3.2089,-3.2111,-3.2097,-3.213,-3.2137,-3.216,-3.2166,-3.2191,-3.217,-3.2187,-3.2191,-3.2196,-3.2201,-3.2077,-3.2195,-3.2194,-3.2194,-3.2194,-3.2193,0,-3.2094,-3.2095,-3.2118,-3.2136,-3.2156,-3.2129,-3.2141,-3.2159,-3.2188,-3.2196,-3.2216,-3.2247,-3.2272,-3.2267,-3.2289,-3.231,-3.2299,-3.2316,-3.2314,-3.2315,-3.2219,-3.2207,-3.2324,-3.2324,-3.2324,-3.2324,-3.2324,-3.2324,-3.2162,-3.2208,-3.22,-3.2248,-3.2249,-3.2281,-3.2289,-3.2299,-3.2305,-3.2342,-3.2361,-3.2358,-3.236,-3.2382,-3.2402,-3.24,-3.2409,-3.2431,-3.2425,-3.2335,-3.2322,-3.231,-3.2298,-3.2433,-3.2433,-3.2519,-3.2519,-3.252]}]]